Location: Grust
(42.8833°N, 0.0333°W)
Time: 13:44:57
(UTC+00:00)

Helios 1A Rocket - Pass Details

Date: 25 October 2020
Orbit: 562 x 587 km, 98.3° (Epoch: 25 November)

Event Time Altitude Azimuth Distance (km) Brightness Sun altitude
Rises 18:34:06 0° 172° (S) 2,797 6.4 -17.5°
Reaches altitude 10° 18:36:16 10° 175° (S) 1,900 5.5 -17.9°
Maximum altitude 18:40:22 66° 258° (WSW) 637 3.3 -18.7°
Drops below altitude 10° 18:44:28 10° 341° (NNW) 1,903 5.8 -19.4°
Sets 18:46:38 0° 344° (NNW) 2,803 6.6 -19.8°
